Weather History for Santee, CA

Change the Weather History Date:

Friday, February 1, 2013

  Actual Average Record
Temperature  
Mean Temperature 58 °F -  
Max Temperature 78 °F 69 °F 82 °F (2000)
Min Temperature 39 °F 40 °F 28 °F (2002)
Degree Days  
Heating Degree Days 6    
Growing Degree Days 8 (Base 50)    
Moisture  
Dew Point 41 °F    
Average Humidity 76    
Maximum Humidity 100    
Minimum Humidity 23    
Precipitation  
Precipitation 0.00 in - - ()
Sea Level Pressure  
Sea Level Pressure 30.17 in    
Wind  
Wind Speed 1 mph (WNW)    
Max Wind Speed 12 mph    
Max Gust Speed -    
Visibility 10 miles    
Events      
Averages and records for this station are not official NWS values.
T = Trace of Precipitation, MM = Missing Value Source: NWS Daily Summary

Daily Weather History Graph

Daily Weather History Graph

Search for Another Location

Airport:

Trip Planner

Search our weather history database for the weather conditions in past years. The results will help you decide how hot, cold, wet, or windy it might be!

Date:

Astronomy

Feb. 01, 2013 Rise Set
Actual Time 6:42 AM PST 5:20 PM PST
Civil Twilight 6:16 AM PST 5:46 PM PST
Nautical Twilight 5:47 AM PST 6:16 PM PST
Astronomical Twilight 5:18 AM PST 6:45 PM PST
Moon 11:09 PM PST (2/1) 9:40 AM PST (2/1)
Length of Visible Light 11h 29m
Length of Day
10h 38m
Waning Gibbous, 69% of the Moon is Illuminated
Feb 1
Waning Gibbous
Feb 3
Last Quarter
Feb 9
New
Feb 17
First Quarter
Feb 25
Full

Hourly Weather History & Observations

Time (PST) Temp. Windchill Dew Point Humidity Pressure Visibility Wind Dir Wind Speed Gust Speed Precip Events Conditions
12:15 AM 46.4 °F - 42.8 °F 87% 30.16 in 10.0 mi Calm Calm - N/A   Clear
12:35 AM 44.6 °F - 41.0 °F 87% 30.16 in 10.0 mi Calm Calm - N/A   Clear
12:55 AM 44.6 °F - 41.0 °F 87% 30.16 in 10.0 mi Calm Calm - N/A   Clear
1:15 AM 44.6 °F 43.1 °F 41.0 °F 87% 30.16 in 10.0 mi WNW 3.5 mph - N/A   Clear
1:35 AM 44.6 °F - 41.0 °F 87% 30.16 in 10.0 mi Calm Calm - N/A   Clear
1:55 AM 44.6 °F - 41.0 °F 87% 30.16 in 10.0 mi Calm Calm - N/A   Clear
2:15 AM 42.8 °F - 41.0 °F 93% 30.16 in 10.0 mi Calm Calm - N/A   Clear
2:35 AM 42.8 °F - 41.0 °F 93% 30.16 in 10.0 mi Calm Calm - N/A   Clear
2:55 AM 42.8 °F - 41.0 °F 93% 30.16 in 10.0 mi Calm Calm - N/A   Clear
3:15 AM 42.8 °F - 41.0 °F 93% 30.16 in 10.0 mi Calm Calm - N/A   Clear
3:35 AM 42.8 °F - 39.2 °F 87% 30.15 in 10.0 mi Calm Calm - N/A   Clear
3:55 AM 41.0 °F - 39.2 °F 93% 30.16 in 10.0 mi Calm Calm - N/A   Clear
4:15 AM 41.0 °F - 39.2 °F 93% 30.16 in 10.0 mi Calm Calm - N/A   Clear
4:35 AM 41.0 °F - 39.2 °F 93% 30.16 in 10.0 mi Calm Calm - N/A   Clear
4:55 AM 39.2 °F - 39.2 °F 100% 30.16 in 10.0 mi Calm Calm - N/A   Clear
5:15 AM 39.2 °F - 39.2 °F 100% 30.16 in 10.0 mi Calm Calm - N/A   Clear
6:47 AM 39.2 °F - 39.2 °F 100% 30.16 in 20.0 mi Calm Calm - N/A   Clear
8:47 AM 53.6 °F - 39.2 °F 58% 30.18 in 25.0 mi Calm Calm - N/A   Clear
1:51 PM 78.8 °F - 37.4 °F 23% 30.12 in 25.0 mi West 11.5 mph - N/A   Mostly Cloudy
6:55 PM 60.8 °F - 41.0 °F 48% 30.15 in 12.0 mi Calm Calm - N/A   Clear
7:55 PM 57.2 °F - 41.0 °F 55% 30.16 in 12.0 mi Calm Calm - N/A   Clear
8:15 PM 55.4 °F - 41.0 °F 58% 30.17 in 10.0 mi Calm Calm - N/A   Clear
8:35 PM 55.4 °F - 41.0 °F 58% 30.18 in 10.0 mi West 3.5 mph - N/A   Clear
8:47 PM 55.4 °F - 41.0 °F 58% 30.18 in 12.0 mi Calm Calm - N/A   Clear
8:55 PM 55.4 °F - 41.0 °F 58% 30.18 in 10.0 mi WNW 3.5 mph - N/A   Clear
9:35 PM 53.6 °F - 41.0 °F 62% 30.19 in 10.0 mi Calm Calm - N/A   Clear
9:55 PM 53.6 °F - 42.8 °F 67% 30.19 in 10.0 mi WNW 3.5 mph - N/A   Clear
10:15 PM 53.6 °F - 42.8 °F 67% 30.19 in 10.0 mi Calm Calm - N/A   Clear
10:35 PM 53.6 °F - 42.8 °F 67% 30.19 in 10.0 mi Calm Calm - N/A   Clear
10:55 PM 51.8 °F - 42.8 °F 71% 30.19 in 10.0 mi WNW 4.6 mph - N/A   Clear
11:15 PM 51.8 °F - 42.8 °F 71% 30.19 in 10.0 mi Calm Calm - N/A   Clear
11:35 PM 51.8 °F - 42.8 °F 71% 30.19 in 10.0 mi Calm Calm - N/A   Clear
11:55 PM 51.8 °F - 42.8 °F 71% 30.19 in 10.0 mi Calm Calm - N/A   Clear